Detroit Metro, MI

3:38 PM EST on January 23, 2018 (GMT -0500)
Detroit Metro Wayne County

Weather History for KDTW - September, 2013

Change the Weather History Date:

Thursday, September 5, 2013

  Actual Average Record
Temperature  
Mean Temperature 65 °F 68 °F  
Max Temperature 73 °F 78 °F 99 °F (1954)
Min Temperature 57 °F 59 °F 42 °F (1974)
Degree Days  
Heating Degree Days 0 1  
Month to date heating degree days 0 5  
Since 1 July heating degree days 12 15  
Cooling Degree Days 0 4  
Month to date cooling degree days 21 24  
Year to date cooling degree days 814 735  
Growing Degree Days 16 (Base 50)    
Moisture  
Dew Point 51 °F    
Average Humidity 64    
Maximum Humidity 90    
Minimum Humidity 38    
Precipitation  
Precipitation 0.00 in 0.11 in 0.97 in (1915)
Month to date precipitation 0.05 0.54  
Year to date precipitation 31.03 22.97  
Snow  
Snow 0.00 in 0.00 in 0.00 in ()
Month to date snowfall 0.0 0.0  
Since 1 July snowfall 0.0 0.0  
Since 1 September snowfall 0.0 0.0  
Snow Depth 0.00 in    
Sea Level Pressure  
Sea Level Pressure 30.20 in    
Wind  
Wind Speed 7 mph (NNW)    
Max Wind Speed 15 mph    
Max Gust Speed 23 mph    
Visibility 10 miles    
Events      
T = Trace of Precipitation, MM = Missing Value Source: NWS Daily Summary

Daily Weather History Graph

Daily Weather History Graph

Search for Another Location

Airport or City:

Trip Planner

Search our weather history database for the weather conditions in past years. The results will help you decide how hot, cold, wet, or windy it might be!

Date:

Astronomy

Sep. 05, 2013 Rise Set
Actual Time 7:03 AM EDT 8:00 PM EDT
Civil Twilight 6:34 AM EDT 8:28 PM EDT
Nautical Twilight 6:00 AM EDT 9:02 PM EDT
Astronomical Twilight 5:25 AM EDT 9:37 PM EDT
Moon 7:14 AM EDT (9/5) 7:49 PM EDT (9/5)
Length of Visible Light 13h 53m
Length of Day
12h 56m
New Moon, 0% of the Moon is Illuminated
Sep 5
New Moon
Sep 12
First Quarter
Sep 19
Full
Sep 26
Last Quarter
Oct 4
New

Hourly Weather History & Observations

Time (EDT) Temp. Dew Point Humidity Pressure Visibility Wind Dir Wind Speed Gust Speed Precip Events Conditions
12:53 AM 69.1 °F 61.0 °F 75% 30.08 in 10.0 mi WNW 4.6 mph - N/A   Mostly Cloudy
1:15 AM 69.8 °F 60.8 °F 73% 30.09 in 10.0 mi WNW 4.6 mph - N/A   Overcast
1:53 AM 68.0 °F 60.1 °F 76% 30.09 in 10.0 mi NW 5.8 mph - N/A   Overcast
2:04 AM 66.2 °F 60.8 °F 83% 30.09 in 10.0 mi NW 8.1 mph - N/A   Overcast
2:53 AM 66.9 °F 60.1 °F 79% 30.10 in 10.0 mi WNW 8.1 mph - N/A   Overcast
3:53 AM 64.9 °F 59.0 °F 81% 30.11 in 10.0 mi NW 5.8 mph - N/A   Mostly Cloudy
4:53 AM 63.0 °F 57.9 °F 84% 30.13 in 10.0 mi NW 5.8 mph - N/A   Scattered Clouds
5:53 AM 61.0 °F 57.9 °F 90% 30.15 in 10.0 mi NW 5.8 mph - N/A   Scattered Clouds
6:53 AM 61.0 °F 57.0 °F 87% 30.18 in 10.0 mi NNW 6.9 mph - N/A   Mostly Cloudy
7:20 AM 60.8 °F 51.8 °F 72% 30.19 in 10.0 mi North 12.7 mph - N/A   Mostly Cloudy
7:53 AM 60.1 °F 50.0 °F 69% 30.20 in 10.0 mi North 9.2 mph - N/A   Overcast
8:05 AM 59.0 °F 50.0 °F 72% 30.21 in 10.0 mi North 10.4 mph - N/A   Mostly Cloudy
8:53 AM 61.0 °F 51.1 °F 70% 30.21 in 10.0 mi NNW 10.4 mph - N/A   Mostly Cloudy
9:53 AM 62.1 °F 46.9 °F 58% 30.22 in 10.0 mi North 10.4 mph - N/A   Mostly Cloudy
10:53 AM 64.0 °F 44.1 °F 48% 30.24 in 10.0 mi North 10.4 mph - N/A   Mostly Cloudy
11:53 AM 66.0 °F 45.0 °F 47% 30.25 in 10.0 mi NW 6.9 mph - N/A   Mostly Cloudy
12:53 PM 68.0 °F 46.0 °F 45% 30.25 in 10.0 mi NNW 8.1 mph - N/A   Mostly Cloudy
1:53 PM 70.0 °F 46.0 °F 42% 30.24 in 10.0 mi NNE 6.9 mph - N/A   Mostly Cloudy
2:53 PM 71.1 °F 45.0 °F 39% 30.24 in 10.0 mi Calm Calm - N/A   Mostly Cloudy
3:53 PM 72.0 °F 46.0 °F 40% 30.22 in 10.0 mi North 9.2 mph - N/A   Mostly Cloudy
4:53 PM 72.0 °F 46.0 °F 40% 30.22 in 10.0 mi NNE 10.4 mph - N/A   Scattered Clouds
5:53 PM 72.0 °F 46.0 °F 40% 30.22 in 10.0 mi North 9.2 mph - N/A   Scattered Clouds
6:53 PM 70.0 °F 44.1 °F 39% 30.23 in 10.0 mi North 6.9 mph - N/A   Partly Cloudy
7:53 PM 66.0 °F 50.0 °F 56% 30.23 in 10.0 mi East 8.1 mph - N/A   Partly Cloudy
8:53 PM 63.0 °F 50.0 °F 63% 30.25 in 10.0 mi East 4.6 mph - N/A   Clear
9:53 PM 61.0 °F 48.9 °F 64% 30.27 in 10.0 mi NE 5.8 mph - N/A   Clear
10:53 PM 59.0 °F 48.9 °F 69% 30.28 in 10.0 mi NNE 3.5 mph - N/A   Clear
11:53 PM 57.9 °F 48.0 °F 70% 30.27 in 10.0 mi Calm Calm - N/A   Clear